Goldsboro, NC

5:50 PM EDT on March 25, 2017 (GMT -0400)
Seymour Johnson Air Force Base

Weather History for KGSB - May, 2013

Change the Weather History Date:

Saturday, May 4, 2013

  Actual Average Record
Temperature  
Mean Temperature 58 °F -  
Max Temperature 67 °F 77 °F 88 °F (2012)
Min Temperature 50 °F 55 °F 44 °F (2005)
Degree Days  
Heating Degree Days 7    
Growing Degree Days 8 (Base 50)    
Moisture  
Dew Point 49 °F    
Average Humidity 74    
Maximum Humidity 88    
Minimum Humidity 56    
Precipitation  
Precipitation 0.00 in - - ()
Sea Level Pressure  
Sea Level Pressure 30.12 in    
Wind  
Wind Speed 12 mph (NE)    
Max Wind Speed 18 mph    
Max Gust Speed 25 mph    
Visibility 10 miles    
Events      
Averages and records for this station are not official NWS values.
T = Trace of Precipitation, MM = Missing Value Source: NWS Daily Summary

Daily Weather History Graph

Daily Weather History Graph

Search for Another Location

Airport or City:

Trip Planner

Search our weather history database for the weather conditions in past years. The results will help you decide how hot, cold, wet, or windy it might be!

Date:

Astronomy

May. 04, 2013 Rise Set
Actual Time 6:17 AM EDT 8:00 PM EDT
Civil Twilight 5:49 AM EDT 8:28 PM EDT
Nautical Twilight 5:16 AM EDT 9:01 PM EDT
Astronomical Twilight 4:41 AM EDT 9:36 PM EDT
Moon 3:02 AM EDT (5/4) 3:06 PM EDT (5/4)
Length of Visible Light 14h 38m
Length of Day
13h 43m
Waning Crescent, 27% of the Moon is Illuminated
May 4
Waning Crescent
May 9
New
May 18
First Quarter
May 25
Full
May 31
Last Quarter

Hourly Weather History & Observations

Time (EDT) Temp. Dew Point Humidity Pressure Visibility Wind Dir Wind Speed Gust Speed Precip Events Conditions
12:58 AM 51.3 °F 45.5 °F 81% 30.18 in 10.0 mi NNE 8.1 mph - N/A   Scattered Clouds
1:01 AM 51.8 °F 46.4 °F 82% 30.18 in 10.0 mi NE 11.5 mph - N/A   Mostly Cloudy
1:58 AM 51.1 °F 46.0 °F 83% 30.17 in 10.0 mi NE 9.2 mph - N/A   Overcast
2:07 AM 51.8 °F 46.4 °F 82% 30.15 in 10.0 mi NNE 8.1 mph - N/A   Overcast
2:58 AM 50.7 °F 46.0 °F 84% 30.15 in 10.0 mi NE 10.4 mph - N/A   Overcast
3:58 AM 50.7 °F 46.0 °F 84% 30.15 in 10.0 mi NE 9.2 mph - N/A   Overcast
4:58 AM 50.7 °F 46.6 °F 86% 30.14 in 10.0 mi NNE 10.4 mph - N/A   Overcast
5:46 AM 50.0 °F 46.4 °F 87% 30.13 in 10.0 mi NNE 11.5 mph 18.4 mph N/A   Overcast
5:58 AM 50.9 °F 47.1 °F 87% 30.14 in 10.0 mi NNE 9.2 mph - N/A   Overcast
6:49 AM 51.8 °F 48.2 °F 88% 30.14 in 10.0 mi NE 10.4 mph - N/A   Overcast
6:58 AM 51.4 °F 47.8 °F 87% 30.15 in 10.0 mi NE 12.7 mph - N/A   Overcast
7:58 AM 53.1 °F 48.0 °F 83% 30.15 in 10.0 mi NE 12.7 mph 19.6 mph N/A   Overcast
8:58 AM 54.5 °F 48.2 °F 79% 30.15 in 10.0 mi NE 12.7 mph 23.0 mph N/A   Overcast
9:04 AM 55.4 °F 48.2 °F 77% 30.14 in 10.0 mi NE 13.8 mph 23.0 mph N/A   Overcast
9:58 AM 56.8 °F 48.7 °F 74% 30.15 in 10.0 mi NE 13.8 mph - N/A   Overcast
10:22 AM 57.2 °F 48.2 °F 72% 30.14 in 10.0 mi ENE 17.3 mph 25.3 mph N/A   Mostly Cloudy
10:43 AM 59.0 °F 48.2 °F 67% 30.14 in 10.0 mi NE 18.4 mph 25.3 mph N/A   Mostly Cloudy
10:58 AM 59.5 °F 48.7 °F 67% 30.15 in 10.0 mi NE 12.7 mph 19.6 mph N/A   Mostly Cloudy
11:58 AM 62.6 °F 50.2 °F 64% 30.14 in 10.0 mi NE 13.8 mph 23.0 mph N/A   Overcast
12:46 PM 64.4 °F 50.0 °F 59% 30.11 in 10.0 mi ENE 17.3 mph 24.2 mph N/A   Mostly Cloudy
12:58 PM 63.7 °F 49.6 °F 60% 30.12 in 10.0 mi NE 16.1 mph - N/A   Mostly Cloudy
1:58 PM 66.2 °F 50.2 °F 56% 30.11 in 10.0 mi NE 16.1 mph 25.3 mph N/A   Scattered Clouds
2:58 PM 66.9 °F 51.8 °F 58% 30.09 in 10.0 mi NE 17.3 mph 23.0 mph N/A   Mostly Cloudy
3:58 PM 64.4 °F 51.4 °F 63% 30.08 in 10.0 mi NE 13.8 mph 19.6 mph N/A   Overcast
4:04 PM 64.4 °F 51.8 °F 64% 30.07 in 10.0 mi NE 13.8 mph 19.6 mph N/A   Overcast
4:22 PM 64.4 °F 51.8 °F 64% 30.07 in 10.0 mi NE 16.1 mph - N/A   Overcast
4:28 PM 62.6 °F 51.8 °F 68% 30.07 in 10.0 mi NE 15.0 mph 19.6 mph N/A   Overcast
4:58 PM 62.2 °F 52.2 °F 70% 30.08 in 10.0 mi NE 13.8 mph 20.7 mph N/A   Overcast
5:58 PM 61.9 °F 52.5 °F 71% 30.08 in 10.0 mi NNE 12.7 mph - N/A   Overcast
6:10 PM 60.8 °F 51.8 °F 72% 30.06 in 10.0 mi NE 11.5 mph 19.6 mph N/A   Overcast
6:16 PM 60.8 °F 51.8 °F 72% 30.07 in 10.0 mi NE 11.5 mph 19.6 mph N/A   Overcast
6:58 PM 60.8 °F 52.9 °F 75% 30.07 in 10.0 mi NE 12.7 mph - N/A   Overcast
7:58 PM 60.3 °F 53.2 °F 78% 30.08 in 10.0 mi NE 9.2 mph - N/A   Overcast
8:37 PM 60.8 °F 50.0 °F 68% 30.08 in 10.0 mi NE 15.0 mph 21.9 mph N/A   Overcast
8:58 PM 59.7 °F 49.8 °F 70% 30.09 in 10.0 mi ENE 15.0 mph - N/A   Overcast
9:58 PM 58.3 °F 49.6 °F 73% 30.11 in 10.0 mi NE 12.7 mph - N/A   Overcast
10:58 PM 57.2 °F 49.6 °F 76% 30.10 in 10.0 mi ENE 12.7 mph 17.3 mph N/A   Overcast
11:55 PM 55.4 °F 50.0 °F 82% 30.08 in 10.0 mi NE 10.4 mph - N/A   Overcast
11:58 PM 56.1 °F 49.5 °F 78% 30.09 in 10.0 mi NE 12.7 mph - N/A   Overcast